Overview Statistics Trail Chart Weather Telemetry Raw packets
 

This is the latest recevied weather packets stored in our database for station/object VE3CGR-6. If no packets are shown the sender has not sent any weather packets the latest 10 day(s).

<< 54 55 56 57 58 >>
Time Temp. Humidity Pressure Rain* Wind** Luminosity Snow
1787781617 23.89° C 71% 1014.1 hPa 0 mm - - -
1787781017 23.89° C 70% 1014.2 hPa 0 mm - - -
1787780421 23.89° C 69% 1014.2 hPa 0 mm - - -
1787779817 23.89° C 68% 1014.2 hPa 0 mm - - -
1787779217 23.89° C 68% 1014.2 hPa 0 mm - - -
1787778617 24.44° C 67% 1014.1 hPa 0 mm - - -
1787778017 24.44° C 67% 1014.2 hPa 0 mm - - -
1787777417 25° C 65% 1014.3 hPa 0 mm - - -
1787776817 25° C 65% 1014.5 hPa 0 mm - - -
1787776217 25.56° C 62% 1014.6 hPa 0 mm - - -
1787775618 25° C 63% 1014.5 hPa 0 mm - - -
1787775018 25.56° C 62% 1014.7 hPa 0 mm - - -
1787774417 25.56° C 62% 1014.8 hPa 0 mm - - -
1787773817 25° C 63% 1014.9 hPa 0 mm - - -
1787773217 25.56° C 63% 1015.1 hPa 0 mm - - -
1787772617 25.56° C 61% 1015.2 hPa 0 mm - - -
1787772017 25.56° C 63% 1015.3 hPa 0 mm - - -
1787771417 25.56° C 62% 1015.4 hPa 0 mm - - -
1787770817 25.56° C 61% 1015.5 hPa 0 mm - - -
1787770218 25.56° C 62% 1015.8 hPa 0 mm - - -
1787769617 25.56° C 62% 1015.7 hPa 0 mm - - -
1787769017 25.56° C 64% 1015.7 hPa 0 mm - - -
1787768417 25° C 62% 1015.9 hPa 0 mm - - -
1787767817 25.56° C 61% 1016 hPa 0 mm - - -
1787767217 25.56° C 60% 1016.1 hPa 0 mm - - -

* Rain latest hour (hover to see other rain measurements)
** Current wind speed in m/s (hover to see current wind gust speed)